Regional Weather Roundup
Issued by NWS Newport/Morehead, NC

Current Version | Previous Version | Graphics & Text | Print | Product List | Glossary Off
Versions: 1 2 3 4 5 6 7 8 9 10 11 12 13 14 15 16 17 18 19 20 21 22 23 24 25 26 27 28 29 30 31 32 33 34 35 36 37 38 39 40 41 42 43 44 45 46 47 48 49 50

000
ASUS42 KMHX 220625
RWRMHX
WEATHER ROUNDUP FOR EASTERN NORTH CAROLINA
NATIONAL WEATHER SERVICE NEWPORT/MOREHEAD CITY NC
200 AM EDT MON MAY 22 2017

NOTE: "FAIR" INDICATES FEW OR NO CLOUDS BELOW 12,000 FEET
WITH NO SIGNIFICANT WEATHER AND/OR OBSTRUCTIONS TO VISIBILITY

NCZ015>017-031-032-045>047-102-103-220700-
NORTH COAST

CITY           SKY/WX    TMP DP  RH WIND       PRES   REMARKS
EDENTON        CLOUDY    66  62  86 CALM      30.12S
ELIZABETH CITY CLOUDY    65  65 100 CALM      30.11F
KITTY HAWK     NOT AVBL
MANTEO         PTCLDY    69  65  89 SE9       30.11F

$$

NCZ045>047-081-094-103-104-220700-
CENTRAL COAST

CITY           SKY/WX    TMP DP  RH WIND       PRES   REMARKS
FRISCO         CLOUDY    73  67  81 SE12      30.11F

$$

NCZ095-097-098-100-101-220700-
SOUTHERN COAST

CITY           SKY/WX    TMP DP  RH WIND       PRES   REMARKS
BEAUFORT       CLOUDY    70  70 100 CALM      30.09F
CEDAR ISLAND   NOT AVBL
JACKSONVILLE   MOCLDY    71  70  96 CALM      30.10F
PINEY ISLAND   CLOUDY   N/A N/A N/A S3        30.09F
WILMINGTON     CLOUDY    73  70  90 SE3       30.09F


$$

NCZ011>013-027>030-043-044-078>080-089-090>093-098-220700-
COASTAL PLAIN

CITY           SKY/WX    TMP DP  RH WIND       PRES   REMARKS
AHOSKIE          N/A     64  62  92 CALM      30.12F
CLINTON        MOCLDY    69  69 100 CALM      30.10F
ELIZABETHTOWN    N/A     69  69 100 CALM      30.09F FOG
GOLDSBORO      MOCLDY    68  68 100 E3        30.09F
GREENVILLE     CLOUDY    64  64 100 CALM      30.13S
HAVELOCK       CLOUDY    70  67  90 CALM      30.10F
KENANSVILLE    CLOUDY    70  68  94 CALM      30.11F FOG
KINSTON        CLOUDY    67  65  94 CALM      30.12S
NEW BERN       MOCLDY    69  69 100 CALM      30.11F
RICHLANDS      MOCLDY    68  67  96 CALM      30.11F
ROCKY MOUNT    CLOUDY    66  65  96 E5        30.11F
WASHINGTON     CLOUDY    65  64  95 CALM      30.11F
WHITEVILLE     PTCLDY    71  69  95 E3        30.08F

$$

AMZ130-135-150-152-154-156-158-170-250-252-270-ANZ085-086-088-633-658-670-220700-
MARINE OBSERVATIONS

STATION/POSITION TIME  TEMP    WIND        PRES    WAVE   SWELL
                       AIR SEA DIR/SP/G            HT/PER HT/PER
                 (UTC) (F)     (DEG/KT/KT) (MB)    (FT/S) (FT/S)
CHESAPEAKE LIGHT NOT AVBL
64 E VA BEACH    0550   70 69  150/ 12/ 14 1020.3    6/ 8   5/ 8
DUCK             0600   67 66  130/ 13/ 15 1019.0
2 E DUCK         0600      65                N/A     4/ 7   2/11
OREGON INLET     0600   67 69  100/  8/ 11 1019.3
13E OREGON INLT  0548      65                N/A     4/ 9   5/ 9
HATTERAS CG      0600   73 74  120/  8/ 10 1019.2
DIAMOND BUOY     0550   76 79  120/ 16/ 19 1019.3    5/ 9   3/ 9
CAPE LOOKOUT     0600   72     100/  4/  4 1018.9
BEAUFORT LAB     0600   72 74  150/  2/  4 1018.2
30 SE NEW RVR IN 0608   73 76  160/  6/  8 1019.0
30 SE NEW RVR IN 0613      76                N/A     3/ 8
27 SE WRIGHTSVLE 0608   72 75  130/  2/  6 1018.3
5 SE WRIGHTSVLE  0608   75 76  150/  8/ 12 1018.6
225 S CAPE HAT   0550   76 78  210/  8/ 10 1019.9    3/ 8   3/ 8
41 SE CHARLESTON 0610   77 78  190/ 16/ 17 1018.5

$$




USA.gov is the U.S. government's official web portal to all federal, state and local government web resources and services.